�ϑ��N����,2020/9/28,,,
�ϑ���,�����А�,,,
�ϑ��n�_,19,,,
���x�v�ԍ�,A004,,,
,,,,
����,�C��,����,����,���l
9:30:00,20.8,5,0.5,
9:31:00,21,4,2.5,
9:32:00,21.1,4,2,
9:33:00,21,0,0,
9:34:00,21.1,4,0.5,
9:35:00,21,4,1,
9:36:00,21,4,1.5,
9:37:00,21,4,1,
9:38:00,21,5,1,
9:39:00,21.1,4,3,
9:40:00,21.3,6,1,
9:41:00,21.3,0,0,
9:42:00,21.3,4,2,
9:43:00,21.3,4,1,
9:44:00,21.2,3,0.5,
9:45:00,21.1,4,1,
9:46:00,21.1,4,2.5,
9:47:00,21,4,2,
9:48:00,21,4,3,
9:49:00,21,4,0.5,
9:50:00,21.1,0,0,
9:51:00,21.1,4,2.5,
9:52:00,21,4,2.5,
9:53:00,21.1,5,0.5,
9:54:00,21.1,4,0.5,
9:55:00,21.2,4,1.5,
9:56:00,21.1,4,3.5,
9:57:00,21,4,0.5,
9:58:00,21.1,4,2,
9:59:00,21.2,4,3,
10:00:00,21,4,2,
10:01:00,21,3,0.5,
10:02:00,21,5,1,
10:03:00,21,6,0.5,
10:04:00,21.1,4,0.5,
10:05:00,21.2,0,0,
10:06:00,21.4,4,2,
10:07:00,21.2,3,1,
10:08:00,21.1,4,1,
10:09:00,21.2,4,1.5,
10:10:00,21.4,4,1,
10:11:00,21.5,4,2,
10:12:00,21.5,6,1.5,
10:13:00,21.3,3,3,
10:14:00,21.3,4,3,
10:15:00,21.2,4,3,
10:16:00,21.2,4,2.5,
10:17:00,21.4,6,1.5,
10:18:00,21.3,7,0.5,
10:19:00,21.7,7,2,
10:20:00,21.8,8,2,
10:21:00,21.8,6,0.5,
10:22:00,21.8,8,0.5,
10:23:00,21.8,0,0,
10:24:00,21.8,4,2,
10:25:00,21.9,7,0.5,
10:26:00,21.9,2,1,
10:27:00,22,4,0.5,
10:28:00,21.9,0,0,
10:29:00,22,2,0.5,
10:30:00,22,2,1,
10:31:00,22,4,3,
10:32:00,22,0,0,
10:33:00,22.1,0,0,
10:34:00,22.1,3,0.5,
10:35:00,22.6,8,1.5,
10:36:00,22.8,4,0.5,
10:37:00,22.8,0,0,�����A����
10:38:00,22.8,0,0,�����Ƃ���
10:39:00,22.9,7,1.5,
10:40:00,22.6,7,0.5,�����A����
10:41:00,22.2,7,1,
10:42:00,22.1,0,0,
10:43:00,22.3,6,1.5,
10:44:00,22.1,7,0.5,
10:45:00,22.1,7,0.5,
10:46:00,22.5,2,1,�����Ƃ���
10:47:00,22.5,4,2,�����A����
10:48:00,22.4,4,2,
10:49:00,22.5,3,1.5,
10:50:00,22.4,0,0,
10:51:00,22.6,0,0,
10:52:00,22.8,4,2,
10:53:00,22.7,0,0,
10:54:00,22.9,0,0,
10:55:00,23,4,0.5,
10:56:00,23,5,1,
10:57:00,23,6,1,
10:58:00,22.9,0,0,
10:59:00,22.7,4,0.5,�����Ƃ���
11:00:00,22.5,4,1,
11:01:00,22.4,4,1,
11:02:00,22.6,4,0.5,
11:03:00,22.8,6,0.5,
11:04:00,22.9,3,0.5,
11:05:00,23,7,0.5,�����A����
11:06:00,23.1,7,1.5,�����Ƃ���
11:07:00,23.2,3,0.5,
11:08:00,23.7,7,0.5,
11:09:00,23.6,6,0.5,
11:10:00,23.4,6,0.5,
11:11:00,23.3,0,0,
11:12:00,23.2,6,1,
11:13:00,23.4,7,0.5,
11:14:00,24,3,0.5,�����A����
11:15:00,24,4,1,
11:16:00,24,0,0,
11:17:00,24,3,1,
11:18:00,23.3,7,0.5,
11:19:00,23.1,0,0,
11:20:00,23.1,3,3,
11:21:00,23,2,1,�����Ƃ���
11:22:00,23,0,0,
11:23:00,23,3,0.5,
11:24:00,23,4,1.5,
11:25:00,22.9,4,2,
11:26:00,23,7,0.5,
11:27:00,23,7,0.5,
11:28:00,23,4,0.5,
11:29:00,23,3,1.5,
11:30:00,23,4,2,
